Index of /20260501/WXO-DD/model_rdps/10km/00/072
Name Last modified Size Description
Parent Directory -
20260501T00Z_MSC_RDPS_AbsoluteVorticity_IsbL-0250_RLatLon0.09_PT072H.grib2 2026-05-01 03:04 619K
20260501T00Z_MSC_RDPS_AbsoluteVorticity_IsbL-0500_RLatLon0.09_PT072H.grib2 2026-05-01 03:04 569K
20260501T00Z_MSC_RDPS_AbsoluteVorticity_IsbL-0700_RLatLon0.09_PT072H.grib2 2026-05-01 03:04 617K
20260501T00Z_MSC_RDPS_AbsoluteVorticity_IsbL-0850_RLatLon0.09_PT072H.grib2 2026-05-01 03:04 780K
20260501T00Z_MSC_RDPS_AirTemp_AGL-120m_RLatLon0.09_PT072H.grib2 2026-05-01 03:04 387K
20260501T00Z_MSC_RDPS_AirTemp_AGL-2m_RLatLon0.09_PT072H.grib2 2026-05-01 03:04 624K
20260501T00Z_MSC_RDPS_AirTemp_AGL-40m_RLatLon0.09_PT072H.grib2 2026-05-01 03:04 397K
20260501T00Z_MSC_RDPS_AirTemp_AGL-80m_RLatLon0.09_PT072H.grib2 2026-05-01 03:04 391K
20260501T00Z_MSC_RDPS_AirTemp_IsbL-0001_RLatLon0.09_PT072H.grib2 2026-05-01 03:04 308K
20260501T00Z_MSC_RDPS_AirTemp_IsbL-0005_RLatLon0.09_PT072H.grib2 2026-05-01 03:04 290K
20260501T00Z_MSC_RDPS_AirTemp_IsbL-0010_RLatLon0.09_PT072H.grib2 2026-05-01 03:04 298K
20260501T00Z_MSC_RDPS_AirTemp_IsbL-0020_RLatLon0.09_PT072H.grib2 2026-05-01 03:04 411K
20260501T00Z_MSC_RDPS_AirTemp_IsbL-0030_RLatLon0.09_PT072H.grib2 2026-05-01 03:04 343K
20260501T00Z_MSC_RDPS_AirTemp_IsbL-0050_RLatLon0.09_PT072H.grib2 2026-05-01 03:04 317K
20260501T00Z_MSC_RDPS_AirTemp_IsbL-0100_RLatLon0.09_PT072H.grib2 2026-05-01 03:04 428K
20260501T00Z_MSC_RDPS_AirTemp_IsbL-0150_RLatLon0.09_PT072H.grib2 2026-05-01 03:04 421K
20260501T00Z_MSC_RDPS_AirTemp_IsbL-0175_RLatLon0.09_PT072H.grib2 2026-05-01 03:04 408K
20260501T00Z_MSC_RDPS_AirTemp_IsbL-0200_RLatLon0.09_PT072H.grib2 2026-05-01 03:04 416K
20260501T00Z_MSC_RDPS_AirTemp_IsbL-0225_RLatLon0.09_PT072H.grib2 2026-05-01 03:04 422K
20260501T00Z_MSC_RDPS_AirTemp_IsbL-0250_RLatLon0.09_PT072H.grib2 2026-05-01 03:04 427K
20260501T00Z_MSC_RDPS_AirTemp_IsbL-0275_RLatLon0.09_PT072H.grib2 2026-05-01 03:04 405K
20260501T00Z_MSC_RDPS_AirTemp_IsbL-0300_RLatLon0.09_PT072H.grib2 2026-05-01 03:04 409K
20260501T00Z_MSC_RDPS_AirTemp_IsbL-0350_RLatLon0.09_PT072H.grib2 2026-05-01 03:04 422K
20260501T00Z_MSC_RDPS_AirTemp_IsbL-0400_RLatLon0.09_PT072H.grib2 2026-05-01 03:04 426K
20260501T00Z_MSC_RDPS_AirTemp_IsbL-0450_RLatLon0.09_PT072H.grib2 2026-05-01 03:04 402K
20260501T00Z_MSC_RDPS_AirTemp_IsbL-0500_RLatLon0.09_PT072H.grib2 2026-05-01 03:04 412K
20260501T00Z_MSC_RDPS_AirTemp_IsbL-0550_RLatLon0.09_PT072H.grib2 2026-05-01 03:04 427K
20260501T00Z_MSC_RDPS_AirTemp_IsbL-0600_RLatLon0.09_PT072H.grib2 2026-05-01 03:04 445K
20260501T00Z_MSC_RDPS_AirTemp_IsbL-0650_RLatLon0.09_PT072H.grib2 2026-05-01 03:04 461K
20260501T00Z_MSC_RDPS_AirTemp_IsbL-0700_RLatLon0.09_PT072H.grib2 2026-05-01 03:04 483K
20260501T00Z_MSC_RDPS_AirTemp_IsbL-0750_RLatLon0.09_PT072H.grib2 2026-05-01 03:04 405K
20260501T00Z_MSC_RDPS_AirTemp_IsbL-0800_RLatLon0.09_PT072H.grib2 2026-05-01 03:04 446K
20260501T00Z_MSC_RDPS_AirTemp_IsbL-0850_RLatLon0.09_PT072H.grib2 2026-05-01 03:04 496K
20260501T00Z_MSC_RDPS_AirTemp_IsbL-0875_RLatLon0.09_PT072H.grib2 2026-05-01 03:04 516K
20260501T00Z_MSC_RDPS_AirTemp_IsbL-0900_RLatLon0.09_PT072H.grib2 2026-05-01 03:04 527K
20260501T00Z_MSC_RDPS_AirTemp_IsbL-0925_RLatLon0.09_PT072H.grib2 2026-05-01 03:04 520K
20260501T00Z_MSC_RDPS_AirTemp_IsbL-0950_RLatLon0.09_PT072H.grib2 2026-05-01 03:04 518K
20260501T00Z_MSC_RDPS_AirTemp_IsbL-0970_RLatLon0.09_PT072H.grib2 2026-05-01 03:04 513K
20260501T00Z_MSC_RDPS_AirTemp_IsbL-0985_RLatLon0.09_PT072H.grib2 2026-05-01 03:04 505K
20260501T00Z_MSC_RDPS_AirTemp_IsbL-1000_RLatLon0.09_PT072H.grib2 2026-05-01 03:04 490K
20260501T00Z_MSC_RDPS_AirTemp_IsbL-1015_RLatLon0.09_PT072H.grib2 2026-05-01 03:04 489K
20260501T00Z_MSC_RDPS_Albedo_Sfc_RLatLon0.09_PT072H.grib2 2026-05-01 03:04 155K
20260501T00Z_MSC_RDPS_CAPE_Sfc_RLatLon0.09_PT072H.grib2 2026-05-01 03:04 1.8M
20260501T00Z_MSC_RDPS_CIN_Sfc_RLatLon0.09_PT072H.grib2 2026-05-01 03:04 1.2M
20260501T00Z_MSC_RDPS_CloudWater_EAtm_RLatLon0.09_PT072H.grib2 2026-05-01 03:04 224K
20260501T00Z_MSC_RDPS_ConvectivePrecip-Accum_Sfc_RLatLon0.09_PT072H.grib2 2026-05-01 03:04 1.2M
20260501T00Z_MSC_RDPS_DewPointDepression_AGL-2m_RLatLon0.09_PT072H.grib2 2026-05-01 03:04 418K
20260501T00Z_MSC_RDPS_DewPointDepression_IsbL-0001_RLatLon0.09_PT072H.grib2 2026-05-01 03:04 193
20260501T00Z_MSC_RDPS_DewPointDepression_IsbL-0005_RLatLon0.09_PT072H.grib2 2026-05-01 03:04 193
20260501T00Z_MSC_RDPS_DewPointDepression_IsbL-0010_RLatLon0.09_PT072H.grib2 2026-05-01 03:04 193
20260501T00Z_MSC_RDPS_DewPointDepression_IsbL-0020_RLatLon0.09_PT072H.grib2 2026-05-01 03:04 193
20260501T00Z_MSC_RDPS_DewPointDepression_IsbL-0030_RLatLon0.09_PT072H.grib2 2026-05-01 03:04 193
20260501T00Z_MSC_RDPS_DewPointDepression_IsbL-0050_RLatLon0.09_PT072H.grib2 2026-05-01 03:04 83K
20260501T00Z_MSC_RDPS_DewPointDepression_IsbL-0100_RLatLon0.09_PT072H.grib2 2026-05-01 03:04 119K
20260501T00Z_MSC_RDPS_DewPointDepression_IsbL-0150_RLatLon0.09_PT072H.grib2 2026-05-01 03:04 141K
20260501T00Z_MSC_RDPS_DewPointDepression_IsbL-0175_RLatLon0.09_PT072H.grib2 2026-05-01 03:04 178K
20260501T00Z_MSC_RDPS_DewPointDepression_IsbL-0200_RLatLon0.09_PT072H.grib2 2026-05-01 03:04 218K
20260501T00Z_MSC_RDPS_DewPointDepression_IsbL-0225_RLatLon0.09_PT072H.grib2 2026-05-01 03:04 260K
20260501T00Z_MSC_RDPS_DewPointDepression_IsbL-0250_RLatLon0.09_PT072H.grib2 2026-05-01 03:04 300K
20260501T00Z_MSC_RDPS_DewPointDepression_IsbL-0275_RLatLon0.09_PT072H.grib2 2026-05-01 03:04 309K
20260501T00Z_MSC_RDPS_DewPointDepression_IsbL-0300_RLatLon0.09_PT072H.grib2 2026-05-01 03:04 326K
20260501T00Z_MSC_RDPS_DewPointDepression_IsbL-0350_RLatLon0.09_PT072H.grib2 2026-05-01 03:04 333K
20260501T00Z_MSC_RDPS_DewPointDepression_IsbL-0400_RLatLon0.09_PT072H.grib2 2026-05-01 03:04 344K
20260501T00Z_MSC_RDPS_DewPointDepression_IsbL-0450_RLatLon0.09_PT072H.grib2 2026-05-01 03:04 347K
20260501T00Z_MSC_RDPS_DewPointDepression_IsbL-0500_RLatLon0.09_PT072H.grib2 2026-05-01 03:04 352K
20260501T00Z_MSC_RDPS_DewPointDepression_IsbL-0550_RLatLon0.09_PT072H.grib2 2026-05-01 03:04 364K
20260501T00Z_MSC_RDPS_DewPointDepression_IsbL-0600_RLatLon0.09_PT072H.grib2 2026-05-01 03:04 372K
20260501T00Z_MSC_RDPS_DewPointDepression_IsbL-0650_RLatLon0.09_PT072H.grib2 2026-05-01 03:04 380K
20260501T00Z_MSC_RDPS_DewPointDepression_IsbL-0700_RLatLon0.09_PT072H.grib2 2026-05-01 03:04 392K
20260501T00Z_MSC_RDPS_DewPointDepression_IsbL-0750_RLatLon0.09_PT072H.grib2 2026-05-01 03:04 409K
20260501T00Z_MSC_RDPS_DewPointDepression_IsbL-0800_RLatLon0.09_PT072H.grib2 2026-05-01 03:04 444K
20260501T00Z_MSC_RDPS_DewPointDepression_IsbL-0850_RLatLon0.09_PT072H.grib2 2026-05-01 03:04 477K
20260501T00Z_MSC_RDPS_DewPointDepression_IsbL-0875_RLatLon0.09_PT072H.grib2 2026-05-01 03:04 478K
20260501T00Z_MSC_RDPS_DewPointDepression_IsbL-0900_RLatLon0.09_PT072H.grib2 2026-05-01 03:04 468K
20260501T00Z_MSC_RDPS_DewPointDepression_IsbL-0925_RLatLon0.09_PT072H.grib2 2026-05-01 03:04 454K
20260501T00Z_MSC_RDPS_DewPointDepression_IsbL-0950_RLatLon0.09_PT072H.grib2 2026-05-01 03:04 445K
20260501T00Z_MSC_RDPS_DewPointDepression_IsbL-0970_RLatLon0.09_PT072H.grib2 2026-05-01 03:04 437K
20260501T00Z_MSC_RDPS_DewPointDepression_IsbL-0985_RLatLon0.09_PT072H.grib2 2026-05-01 03:04 433K
20260501T00Z_MSC_RDPS_DewPointDepression_IsbL-1000_RLatLon0.09_PT072H.grib2 2026-05-01 03:04 428K
20260501T00Z_MSC_RDPS_DewPointDepression_IsbL-1015_RLatLon0.09_PT072H.grib2 2026-05-01 03:04 420K
20260501T00Z_MSC_RDPS_DewPoint_AGL-2m_RLatLon0.09_PT072H.grib2 2026-05-01 03:04 311K
20260501T00Z_MSC_RDPS_DownwardLongwaveRadiationFlux-Accum_Sfc_RLatLon0.09_PT072H.grib2 2026-05-01 03:04 425K
20260501T00Z_MSC_RDPS_DownwardShortwaveRadiationFlux-Accum_NTAtm_RLatLon0.09_PT072H.grib2 2026-05-01 03:04 133K
20260501T00Z_MSC_RDPS_DownwardShortwaveRadiationFlux-Accum_Sfc_RLatLon0.09_PT072H.grib2 2026-05-01 03:04 623K
20260501T00Z_MSC_RDPS_FreezingRain-Accum12h_Sfc_RLatLon0.09_PT072H.grib2 2026-05-01 03:04 59K
20260501T00Z_MSC_RDPS_FreezingRain-Accum1h_Sfc_RLatLon0.09_PT072H.grib2 2026-05-01 03:04 19K
20260501T00Z_MSC_RDPS_FreezingRain-Accum24h_Sfc_RLatLon0.09_PT072H.grib2 2026-05-01 03:04 101K
20260501T00Z_MSC_RDPS_FreezingRain-Accum3h_Sfc_RLatLon0.09_PT072H.grib2 2026-05-01 03:04 20K
20260501T00Z_MSC_RDPS_FreezingRain-Accum6h_Sfc_RLatLon0.09_PT072H.grib2 2026-05-01 03:04 26K
20260501T00Z_MSC_RDPS_FreezingRain-Accum_Sfc_RLatLon0.09_PT072H.grib2 2026-05-01 03:04 214K
20260501T00Z_MSC_RDPS_GeopotentialHeight_IsbL-0001_RLatLon0.09_PT072H.grib2 2026-05-01 03:04 313K
20260501T00Z_MSC_RDPS_GeopotentialHeight_IsbL-0005_RLatLon0.09_PT072H.grib2 2026-05-01 03:04 335K
20260501T00Z_MSC_RDPS_GeopotentialHeight_IsbL-0010_RLatLon0.09_PT072H.grib2 2026-05-01 03:04 302K
20260501T00Z_MSC_RDPS_GeopotentialHeight_IsbL-0020_RLatLon0.09_PT072H.grib2 2026-05-01 03:04 397K
20260501T00Z_MSC_RDPS_GeopotentialHeight_IsbL-0030_RLatLon0.09_PT072H.grib2 2026-05-01 03:04 304K
20260501T00Z_MSC_RDPS_GeopotentialHeight_IsbL-0050_RLatLon0.09_PT072H.grib2 2026-05-01 03:04 308K
20260501T00Z_MSC_RDPS_GeopotentialHeight_IsbL-0100_RLatLon0.09_PT072H.grib2 2026-05-01 03:04 288K
20260501T00Z_MSC_RDPS_GeopotentialHeight_IsbL-0150_RLatLon0.09_PT072H.grib2 2026-05-01 03:04 232K
20260501T00Z_MSC_RDPS_GeopotentialHeight_IsbL-0175_RLatLon0.09_PT072H.grib2 2026-05-01 03:04 233K
20260501T00Z_MSC_RDPS_GeopotentialHeight_IsbL-0200_RLatLon0.09_PT072H.grib2 2026-05-01 03:04 266K
20260501T00Z_MSC_RDPS_GeopotentialHeight_IsbL-0225_RLatLon0.09_PT072H.grib2 2026-05-01 03:04 267K
20260501T00Z_MSC_RDPS_GeopotentialHeight_IsbL-0250_RLatLon0.09_PT072H.grib2 2026-05-01 03:04 267K
20260501T00Z_MSC_RDPS_GeopotentialHeight_IsbL-0275_RLatLon0.09_PT072H.grib2 2026-05-01 03:04 266K
20260501T00Z_MSC_RDPS_GeopotentialHeight_IsbL-0300_RLatLon0.09_PT072H.grib2 2026-05-01 03:04 235K
20260501T00Z_MSC_RDPS_GeopotentialHeight_IsbL-0350_RLatLon0.09_PT072H.grib2 2026-05-01 03:04 231K
20260501T00Z_MSC_RDPS_GeopotentialHeight_IsbL-0400_RLatLon0.09_PT072H.grib2 2026-05-01 03:04 227K
20260501T00Z_MSC_RDPS_GeopotentialHeight_IsbL-0450_RLatLon0.09_PT072H.grib2 2026-05-01 03:04 297K
20260501T00Z_MSC_RDPS_GeopotentialHeight_IsbL-0500_RLatLon0.09_PT072H.grib2 2026-05-01 03:04 293K
20260501T00Z_MSC_RDPS_GeopotentialHeight_IsbL-0550_RLatLon0.09_PT072H.grib2 2026-05-01 03:04 288K
20260501T00Z_MSC_RDPS_GeopotentialHeight_IsbL-0600_RLatLon0.09_PT072H.grib2 2026-05-01 03:04 284K
20260501T00Z_MSC_RDPS_GeopotentialHeight_IsbL-0650_RLatLon0.09_PT072H.grib2 2026-05-01 03:04 255K
20260501T00Z_MSC_RDPS_GeopotentialHeight_IsbL-0700_RLatLon0.09_PT072H.grib2 2026-05-01 03:04 255K
20260501T00Z_MSC_RDPS_GeopotentialHeight_IsbL-0750_RLatLon0.09_PT072H.grib2 2026-05-01 03:04 257K
20260501T00Z_MSC_RDPS_GeopotentialHeight_IsbL-0800_RLatLon0.09_PT072H.grib2 2026-05-01 03:04 345K
20260501T00Z_MSC_RDPS_GeopotentialHeight_IsbL-0850_RLatLon0.09_PT072H.grib2 2026-05-01 03:04 353K
20260501T00Z_MSC_RDPS_GeopotentialHeight_IsbL-0875_RLatLon0.09_PT072H.grib2 2026-05-01 03:04 355K
20260501T00Z_MSC_RDPS_GeopotentialHeight_IsbL-0900_RLatLon0.09_PT072H.grib2 2026-05-01 03:04 360K
20260501T00Z_MSC_RDPS_GeopotentialHeight_IsbL-0925_RLatLon0.09_PT072H.grib2 2026-05-01 03:04 361K
20260501T00Z_MSC_RDPS_GeopotentialHeight_IsbL-0950_RLatLon0.09_PT072H.grib2 2026-05-01 03:04 364K
20260501T00Z_MSC_RDPS_GeopotentialHeight_IsbL-0970_RLatLon0.09_PT072H.grib2 2026-05-01 03:04 370K
20260501T00Z_MSC_RDPS_GeopotentialHeight_IsbL-0985_RLatLon0.09_PT072H.grib2 2026-05-01 03:04 378K
20260501T00Z_MSC_RDPS_GeopotentialHeight_IsbL-1000_RLatLon0.09_PT072H.grib2 2026-05-01 03:04 389K
20260501T00Z_MSC_RDPS_GeopotentialHeight_IsbL-1015_RLatLon0.09_PT072H.grib2 2026-05-01 03:04 403K
20260501T00Z_MSC_RDPS_Humidex_Sfc_RLatLon0.09_PT072H.grib2 2026-05-01 03:04 2.4M
20260501T00Z_MSC_RDPS_IcePellets-Accum12h_Sfc_RLatLon0.09_PT072H.grib2 2026-05-01 03:04 6.0K
20260501T00Z_MSC_RDPS_IcePellets-Accum1h_Sfc_RLatLon0.09_PT072H.grib2 2026-05-01 03:04 1.2K
20260501T00Z_MSC_RDPS_IcePellets-Accum24h_Sfc_RLatLon0.09_PT072H.grib2 2026-05-01 03:04 11K
20260501T00Z_MSC_RDPS_IcePellets-Accum3h_Sfc_RLatLon0.09_PT072H.grib2 2026-05-01 03:04 1.5K
20260501T00Z_MSC_RDPS_IcePellets-Accum6h_Sfc_RLatLon0.09_PT072H.grib2 2026-05-01 03:04 2.2K
20260501T00Z_MSC_RDPS_IcePellets-Accum_Sfc_RLatLon0.09_PT072H.grib2 2026-05-01 03:04 36K
20260501T00Z_MSC_RDPS_KIndex_Sfc_RLatLon0.09_PT072H.grib2 2026-05-01 03:04 2.4M
20260501T00Z_MSC_RDPS_LatentHeatNetFlux_Sfc_RLatLon0.09_PT072H.grib2 2026-05-01 03:04 359K
20260501T00Z_MSC_RDPS_LiftedIndex-MU-VT_IsbL-0500_RLatLon0.09_PT072H.grib2 2026-05-01 03:04 2.4M
20260501T00Z_MSC_RDPS_NetLongwaveRadiationFlux-Accum_Sfc_RLatLon0.09_PT072H.grib2 2026-05-01 03:04 475K
20260501T00Z_MSC_RDPS_NetShortwaveRadiationFlux-Accum_Sfc_RLatLon0.09_PT072H.grib2 2026-05-01 03:04 626K
20260501T00Z_MSC_RDPS_PlanetaryBoundaryLayerHeight_Sfc_RLatLon0.09_PT072H.grib2 2026-05-01 03:04 1.0M
20260501T00Z_MSC_RDPS_Precip-Accum12h_Sfc_RLatLon0.09_PT072H.grib2 2026-05-01 03:04 1.7M
20260501T00Z_MSC_RDPS_Precip-Accum1h_Sfc_RLatLon0.09_PT072H.grib2 2026-05-01 03:04 1.2M
20260501T00Z_MSC_RDPS_Precip-Accum24h_Sfc_RLatLon0.09_PT072H.grib2 2026-05-01 03:04 2.0M
20260501T00Z_MSC_RDPS_Precip-Accum3h_Sfc_RLatLon0.09_PT072H.grib2 2026-05-01 03:04 1.3M
20260501T00Z_MSC_RDPS_Precip-Accum6h_Sfc_RLatLon0.09_PT072H.grib2 2026-05-01 03:04 1.5M
20260501T00Z_MSC_RDPS_Precip-Accum_Sfc_RLatLon0.09_PT072H.grib2 2026-05-01 03:04 2.1M
20260501T00Z_MSC_RDPS_PrecipRate_Sfc_RLatLon0.09_PT072H.grib2 2026-05-01 03:04 162K
20260501T00Z_MSC_RDPS_PrecipType-Instant_Sfc_RLatLon0.09_PT072H.grib2 2026-05-01 03:04 583K
20260501T00Z_MSC_RDPS_Pressure-Trend3h_Sfc_RLatLon0.09_PT072H.grib2 2026-05-01 03:04 1.2M
20260501T00Z_MSC_RDPS_Pressure_MSL_RLatLon0.09_PT072H.grib2 2026-05-01 03:04 325K
20260501T00Z_MSC_RDPS_Pressure_PVU-1.5_RLatLon0.09_PT072H.grib2 2026-05-01 03:04 2.3M
20260501T00Z_MSC_RDPS_Pressure_PVU-1_RLatLon0.09_PT072H.grib2 2026-05-01 03:04 2.4M
20260501T00Z_MSC_RDPS_Pressure_PVU-2_RLatLon0.09_PT072H.grib2 2026-05-01 03:04 2.3M
20260501T00Z_MSC_RDPS_Pressure_Sfc_RLatLon0.09_PT072H.grib2 2026-05-01 03:04 497K
20260501T00Z_MSC_RDPS_RadiativeTemp_Sfc_RLatLon0.09_PT072H.grib2 2026-05-01 03:04 315K
20260501T00Z_MSC_RDPS_Rain-Accum12h_Sfc_RLatLon0.09_PT072H.grib2 2026-05-01 03:04 1.2M
20260501T00Z_MSC_RDPS_Rain-Accum1h_Sfc_RLatLon0.09_PT072H.grib2 2026-05-01 03:04 605K
20260501T00Z_MSC_RDPS_Rain-Accum24h_Sfc_RLatLon0.09_PT072H.grib2 2026-05-01 03:04 1.4M
20260501T00Z_MSC_RDPS_Rain-Accum3h_Sfc_RLatLon0.09_PT072H.grib2 2026-05-01 03:04 696K
20260501T00Z_MSC_RDPS_Rain-Accum6h_Sfc_RLatLon0.09_PT072H.grib2 2026-05-01 03:04 972K
20260501T00Z_MSC_RDPS_Rain-Accum_Sfc_RLatLon0.09_PT072H.grib2 2026-05-01 03:04 1.8M
20260501T00Z_MSC_RDPS_RelativeHumidity_AGL-2m_RLatLon0.09_PT072H.grib2 2026-05-01 03:04 1.0M
20260501T00Z_MSC_RDPS_RelativeHumidity_IsbL-0010_RLatLon0.09_PT072H.grib2 2026-05-01 03:04 606K
20260501T00Z_MSC_RDPS_RelativeHumidity_IsbL-0020_RLatLon0.09_PT072H.grib2 2026-05-01 03:04 654K
20260501T00Z_MSC_RDPS_RelativeHumidity_IsbL-0030_RLatLon0.09_PT072H.grib2 2026-05-01 03:04 605K
20260501T00Z_MSC_RDPS_RelativeHumidity_IsbL-0050_RLatLon0.09_PT072H.grib2 2026-05-01 03:04 359K
20260501T00Z_MSC_RDPS_RelativeHumidity_IsbL-0100_RLatLon0.09_PT072H.grib2 2026-05-01 03:04 280K
20260501T00Z_MSC_RDPS_RelativeHumidity_IsbL-0150_RLatLon0.09_PT072H.grib2 2026-05-01 03:04 411K
20260501T00Z_MSC_RDPS_RelativeHumidity_IsbL-0175_RLatLon0.09_PT072H.grib2 2026-05-01 03:04 469K
20260501T00Z_MSC_RDPS_RelativeHumidity_IsbL-0200_RLatLon0.09_PT072H.grib2 2026-05-01 03:04 551K
20260501T00Z_MSC_RDPS_RelativeHumidity_IsbL-0225_RLatLon0.09_PT072H.grib2 2026-05-01 03:04 618K
20260501T00Z_MSC_RDPS_RelativeHumidity_IsbL-0250_RLatLon0.09_PT072H.grib2 2026-05-01 03:04 684K
20260501T00Z_MSC_RDPS_RelativeHumidity_IsbL-0275_RLatLon0.09_PT072H.grib2 2026-05-01 03:04 708K
20260501T00Z_MSC_RDPS_RelativeHumidity_IsbL-0300_RLatLon0.09_PT072H.grib2 2026-05-01 03:04 747K
20260501T00Z_MSC_RDPS_RelativeHumidity_IsbL-0350_RLatLon0.09_PT072H.grib2 2026-05-01 03:04 773K
20260501T00Z_MSC_RDPS_RelativeHumidity_IsbL-0400_RLatLon0.09_PT072H.grib2 2026-05-01 03:04 790K
20260501T00Z_MSC_RDPS_RelativeHumidity_IsbL-0450_RLatLon0.09_PT072H.grib2 2026-05-01 03:04 794K
20260501T00Z_MSC_RDPS_RelativeHumidity_IsbL-0500_RLatLon0.09_PT072H.grib2 2026-05-01 03:04 800K
20260501T00Z_MSC_RDPS_RelativeHumidity_IsbL-0550_RLatLon0.09_PT072H.grib2 2026-05-01 03:04 820K
20260501T00Z_MSC_RDPS_RelativeHumidity_IsbL-0600_RLatLon0.09_PT072H.grib2 2026-05-01 03:04 837K
20260501T00Z_MSC_RDPS_RelativeHumidity_IsbL-0650_RLatLon0.09_PT072H.grib2 2026-05-01 03:04 849K
20260501T00Z_MSC_RDPS_RelativeHumidity_IsbL-0700_RLatLon0.09_PT072H.grib2 2026-05-01 03:04 872K
20260501T00Z_MSC_RDPS_RelativeHumidity_IsbL-0750_RLatLon0.09_PT072H.grib2 2026-05-01 03:04 918K
20260501T00Z_MSC_RDPS_RelativeHumidity_IsbL-0800_RLatLon0.09_PT072H.grib2 2026-05-01 03:04 1.0M
20260501T00Z_MSC_RDPS_RelativeHumidity_IsbL-0850_RLatLon0.09_PT072H.grib2 2026-05-01 03:04 1.0M
20260501T00Z_MSC_RDPS_RelativeHumidity_IsbL-0875_RLatLon0.09_PT072H.grib2 2026-05-01 03:04 1.1M
20260501T00Z_MSC_RDPS_RelativeHumidity_IsbL-0900_RLatLon0.09_PT072H.grib2 2026-05-01 03:04 1.1M
20260501T00Z_MSC_RDPS_RelativeHumidity_IsbL-0925_RLatLon0.09_PT072H.grib2 2026-05-01 03:04 1.1M
20260501T00Z_MSC_RDPS_RelativeHumidity_IsbL-0950_RLatLon0.09_PT072H.grib2 2026-05-01 03:04 1.1M
20260501T00Z_MSC_RDPS_RelativeHumidity_IsbL-0970_RLatLon0.09_PT072H.grib2 2026-05-01 03:04 1.0M
20260501T00Z_MSC_RDPS_RelativeHumidity_IsbL-0985_RLatLon0.09_PT072H.grib2 2026-05-01 03:04 1.0M
20260501T00Z_MSC_RDPS_RelativeHumidity_IsbL-1000_RLatLon0.09_PT072H.grib2 2026-05-01 03:04 1.0M
20260501T00Z_MSC_RDPS_RelativeHumidity_IsbL-1015_RLatLon0.09_PT072H.grib2 2026-05-01 03:04 1.0M
20260501T00Z_MSC_RDPS_Runoff-Accum_Sfc_RLatLon0.09_PT072H.grib2 2026-05-01 03:04 68K
20260501T00Z_MSC_RDPS_SWEATIndex_Sfc_RLatLon0.09_PT072H.grib2 2026-05-01 03:04 2.4M
20260501T00Z_MSC_RDPS_SeeingIndex_EAtm_RLatLon0.09_PT072H.grib2 2026-05-01 03:04 1.0M
20260501T00Z_MSC_RDPS_SensibleHeatNetFlux_Sfc_RLatLon0.09_PT072H.grib2 2026-05-01 03:04 315K
20260501T00Z_MSC_RDPS_ShowalterIndex_IsbL-0500_RLatLon0.09_PT072H.grib2 2026-05-01 03:04 2.6M
20260501T00Z_MSC_RDPS_SkyTransparencyIndex_EAtm_RLatLon0.09_PT072H.grib2 2026-05-01 03:04 726K
20260501T00Z_MSC_RDPS_Snow-Accum12h_Sfc_RLatLon0.09_PT072H.grib2 2026-05-01 03:04 594K
20260501T00Z_MSC_RDPS_Snow-Accum1h_Sfc_RLatLon0.09_PT072H.grib2 2026-05-01 03:04 441K
20260501T00Z_MSC_RDPS_Snow-Accum24h_Sfc_RLatLon0.09_PT072H.grib2 2026-05-01 03:04 646K
20260501T00Z_MSC_RDPS_Snow-Accum3h_Sfc_RLatLon0.09_PT072H.grib2 2026-05-01 03:04 443K
20260501T00Z_MSC_RDPS_Snow-Accum6h_Sfc_RLatLon0.09_PT072H.grib2 2026-05-01 03:04 538K
20260501T00Z_MSC_RDPS_Snow-Accum_Sfc_RLatLon0.09_PT072H.grib2 2026-05-01 03:04 763K
20260501T00Z_MSC_RDPS_SnowDensity_Sfc_RLatLon0.09_PT072H.grib2 2026-05-01 03:04 173K
20260501T00Z_MSC_RDPS_SnowDepth_Sfc_RLatLon0.09_PT072H.grib2 2026-05-01 03:04 652K
20260501T00Z_MSC_RDPS_SoilTemp_DBS-0to10cm_RLatLon0.09_PT072H.grib2 2026-05-01 03:04 248K
20260501T00Z_MSC_RDPS_SoilTemp_Sfc_RLatLon0.09_PT072H.grib2 2026-05-01 03:04 271K
20260501T00Z_MSC_RDPS_SoilVolumetricIceContent_Sfc_RLatLon0.09_PT072H.grib2 2026-05-01 03:04 157K
20260501T00Z_MSC_RDPS_SoilVolumetricWaterContent_DBS-0to10cm_RLatLon0.09_PT072H.grib2 2026-05-01 03:04 274K
20260501T00Z_MSC_RDPS_SoilVolumetricWaterContent_DBS-0to1cm_RLatLon0.09_PT072H.grib2 2026-05-01 03:04 341K
20260501T00Z_MSC_RDPS_SpecificHumidity_AGL-120m_RLatLon0.09_PT072H.grib2 2026-05-01 03:04 492K
20260501T00Z_MSC_RDPS_SpecificHumidity_AGL-2m_RLatLon0.09_PT072H.grib2 2026-05-01 03:04 666K
20260501T00Z_MSC_RDPS_SpecificHumidity_AGL-40m_RLatLon0.09_PT072H.grib2 2026-05-01 03:04 500K
20260501T00Z_MSC_RDPS_SpecificHumidity_AGL-80m_RLatLon0.09_PT072H.grib2 2026-05-01 03:04 494K
20260501T00Z_MSC_RDPS_SpecificHumidity_IsbL-0001_RLatLon0.09_PT072H.grib2 2026-05-01 03:04 371K
20260501T00Z_MSC_RDPS_SpecificHumidity_IsbL-0005_RLatLon0.09_PT072H.grib2 2026-05-01 03:04 359K
20260501T00Z_MSC_RDPS_SpecificHumidity_IsbL-0010_RLatLon0.09_PT072H.grib2 2026-05-01 03:04 394K
20260501T00Z_MSC_RDPS_SpecificHumidity_IsbL-0020_RLatLon0.09_PT072H.grib2 2026-05-01 03:04 373K
20260501T00Z_MSC_RDPS_SpecificHumidity_IsbL-0030_RLatLon0.09_PT072H.grib2 2026-05-01 03:04 476K
20260501T00Z_MSC_RDPS_SpecificHumidity_IsbL-0050_RLatLon0.09_PT072H.grib2 2026-05-01 03:04 471K
20260501T00Z_MSC_RDPS_SpecificHumidity_IsbL-0100_RLatLon0.09_PT072H.grib2 2026-05-01 03:04 423K
20260501T00Z_MSC_RDPS_SpecificHumidity_IsbL-0150_RLatLon0.09_PT072H.grib2 2026-05-01 03:04 450K
20260501T00Z_MSC_RDPS_SpecificHumidity_IsbL-0175_RLatLon0.09_PT072H.grib2 2026-05-01 03:04 435K
20260501T00Z_MSC_RDPS_SpecificHumidity_IsbL-0200_RLatLon0.09_PT072H.grib2 2026-05-01 03:04 456K
20260501T00Z_MSC_RDPS_SpecificHumidity_IsbL-0225_RLatLon0.09_PT072H.grib2 2026-05-01 03:04 457K
20260501T00Z_MSC_RDPS_SpecificHumidity_IsbL-0250_RLatLon0.09_PT072H.grib2 2026-05-01 03:04 516K
20260501T00Z_MSC_RDPS_SpecificHumidity_IsbL-0275_RLatLon0.09_PT072H.grib2 2026-05-01 03:04 476K
20260501T00Z_MSC_RDPS_SpecificHumidity_IsbL-0300_RLatLon0.09_PT072H.grib2 2026-05-01 03:04 448K
20260501T00Z_MSC_RDPS_SpecificHumidity_IsbL-0350_RLatLon0.09_PT072H.grib2 2026-05-01 03:04 445K
20260501T00Z_MSC_RDPS_SpecificHumidity_IsbL-0400_RLatLon0.09_PT072H.grib2 2026-05-01 03:04 526K
20260501T00Z_MSC_RDPS_SpecificHumidity_IsbL-0450_RLatLon0.09_PT072H.grib2 2026-05-01 03:04 574K
20260501T00Z_MSC_RDPS_SpecificHumidity_IsbL-0500_RLatLon0.09_PT072H.grib2 2026-05-01 03:04 510K
20260501T00Z_MSC_RDPS_SpecificHumidity_IsbL-0550_RLatLon0.09_PT072H.grib2 2026-05-01 03:04 584K
20260501T00Z_MSC_RDPS_SpecificHumidity_IsbL-0600_RLatLon0.09_PT072H.grib2 2026-05-01 03:04 634K
20260501T00Z_MSC_RDPS_SpecificHumidity_IsbL-0650_RLatLon0.09_PT072H.grib2 2026-05-01 03:04 551K
20260501T00Z_MSC_RDPS_SpecificHumidity_IsbL-0700_RLatLon0.09_PT072H.grib2 2026-05-01 03:04 594K
20260501T00Z_MSC_RDPS_SpecificHumidity_IsbL-0750_RLatLon0.09_PT072H.grib2 2026-05-01 03:04 648K
20260501T00Z_MSC_RDPS_SpecificHumidity_IsbL-0800_RLatLon0.09_PT072H.grib2 2026-05-01 03:04 731K
20260501T00Z_MSC_RDPS_SpecificHumidity_IsbL-0850_RLatLon0.09_PT072H.grib2 2026-05-01 03:04 809K
20260501T00Z_MSC_RDPS_SpecificHumidity_IsbL-0875_RLatLon0.09_PT072H.grib2 2026-05-01 03:04 837K
20260501T00Z_MSC_RDPS_SpecificHumidity_IsbL-0900_RLatLon0.09_PT072H.grib2 2026-05-01 03:04 711K
20260501T00Z_MSC_RDPS_SpecificHumidity_IsbL-0925_RLatLon0.09_PT072H.grib2 2026-05-01 03:04 710K
20260501T00Z_MSC_RDPS_SpecificHumidity_IsbL-0950_RLatLon0.09_PT072H.grib2 2026-05-01 03:04 711K
20260501T00Z_MSC_RDPS_SpecificHumidity_IsbL-0970_RLatLon0.09_PT072H.grib2 2026-05-01 03:04 702K
20260501T00Z_MSC_RDPS_SpecificHumidity_IsbL-0985_RLatLon0.09_PT072H.grib2 2026-05-01 03:04 695K
20260501T00Z_MSC_RDPS_SpecificHumidity_IsbL-1000_RLatLon0.09_PT072H.grib2 2026-05-01 03:04 689K
20260501T00Z_MSC_RDPS_SpecificHumidity_IsbL-1015_RLatLon0.09_PT072H.grib2 2026-05-01 03:04 679K
20260501T00Z_MSC_RDPS_SpecificHumidity_Sfc_RLatLon0.09_PT072H.grib2 2026-05-01 03:04 336K
20260501T00Z_MSC_RDPS_StormRelativeHelicity_EtaL-10000_RLatLon0.09_PT072H.grib2 2026-05-01 03:04 1.1M
20260501T00Z_MSC_RDPS_StormSeverityIndex_EtaL-10000_RLatLon0.09_PT072H.grib2 2026-05-01 03:04 1.2M
20260501T00Z_MSC_RDPS_Thickness_IsbL-0850to0700_RLatLon0.09_PT072H.grib2 2026-05-01 03:04 175K
20260501T00Z_MSC_RDPS_Thickness_IsbL-1000to0500_RLatLon0.09_PT072H.grib2 2026-05-01 03:04 195K
20260501T00Z_MSC_RDPS_Thickness_IsbL-1000to0850_RLatLon0.09_PT072H.grib2 2026-05-01 03:04 184K
20260501T00Z_MSC_RDPS_TotalCloudCover_Sfc_RLatLon0.09_PT072H.grib2 2026-05-01 03:04 656K
20260501T00Z_MSC_RDPS_TotalTotalsIndex_Sfc_RLatLon0.09_PT072H.grib2 2026-05-01 03:04 2.3M
20260501T00Z_MSC_RDPS_UVIndex-ClearSky_Sfc_RLatLon0.09_PT072H.grib2 2026-05-01 03:04 188K
20260501T00Z_MSC_RDPS_UVIndex_Sfc_RLatLon0.09_PT072H.grib2 2026-05-01 03:04 396K
20260501T00Z_MSC_RDPS_UpwardLongwaveRadiationFlux_NTAtm_RLatLon0.09_PT072H.grib2 2026-05-01 03:04 494K
20260501T00Z_MSC_RDPS_UpwardShortwaveRadiationFlux_NTAtm_RLatLon0.09_PT072H.grib2 2026-05-01 03:04 339K
20260501T00Z_MSC_RDPS_VerticalVelocity_IsbL-0250_RLatLon0.09_PT072H.grib2 2026-05-01 03:04 457K
20260501T00Z_MSC_RDPS_VerticalVelocity_IsbL-0500_RLatLon0.09_PT072H.grib2 2026-05-01 03:04 544K
20260501T00Z_MSC_RDPS_VerticalVelocity_IsbL-0700_RLatLon0.09_PT072H.grib2 2026-05-01 03:04 596K
20260501T00Z_MSC_RDPS_VerticalVelocity_IsbL-0850_RLatLon0.09_PT072H.grib2 2026-05-01 03:04 695K
20260501T00Z_MSC_RDPS_VerticalWindShear_EtaL-6500_RLatLon0.09_PT072H.grib2 2026-05-01 03:04 1.2M
20260501T00Z_MSC_RDPS_WindChill_Sfc_RLatLon0.09_PT072H.grib2 2026-05-01 03:04 1.1M
20260501T00Z_MSC_RDPS_WindDir_AGL-10m_RLatLon0.09_PT072H.grib2 2026-05-01 03:04 957K
20260501T00Z_MSC_RDPS_WindDir_AGL-120m_RLatLon0.09_PT072H.grib2 2026-05-01 03:04 603K
20260501T00Z_MSC_RDPS_WindDir_AGL-40m_RLatLon0.09_PT072H.grib2 2026-05-01 03:04 628K
20260501T00Z_MSC_RDPS_WindDir_AGL-80m_RLatLon0.09_PT072H.grib2 2026-05-01 03:04 613K
20260501T00Z_MSC_RDPS_WindDir_IsbL-0001_RLatLon0.09_PT072H.grib2 2026-05-01 03:04 284K
20260501T00Z_MSC_RDPS_WindDir_IsbL-0005_RLatLon0.09_PT072H.grib2 2026-05-01 03:04 369K
20260501T00Z_MSC_RDPS_WindDir_IsbL-0010_RLatLon0.09_PT072H.grib2 2026-05-01 03:04 395K
20260501T00Z_MSC_RDPS_WindDir_IsbL-0020_RLatLon0.09_PT072H.grib2 2026-05-01 03:04 437K
20260501T00Z_MSC_RDPS_WindDir_IsbL-0030_RLatLon0.09_PT072H.grib2 2026-05-01 03:04 422K
20260501T00Z_MSC_RDPS_WindDir_IsbL-0050_RLatLon0.09_PT072H.grib2 2026-05-01 03:04 405K
20260501T00Z_MSC_RDPS_WindDir_IsbL-0100_RLatLon0.09_PT072H.grib2 2026-05-01 03:04 409K
20260501T00Z_MSC_RDPS_WindDir_IsbL-0150_RLatLon0.09_PT072H.grib2 2026-05-01 03:04 412K
20260501T00Z_MSC_RDPS_WindDir_IsbL-0175_RLatLon0.09_PT072H.grib2 2026-05-01 03:04 435K
20260501T00Z_MSC_RDPS_WindDir_IsbL-0200_RLatLon0.09_PT072H.grib2 2026-05-01 03:04 456K
20260501T00Z_MSC_RDPS_WindDir_IsbL-0225_RLatLon0.09_PT072H.grib2 2026-05-01 03:04 456K
20260501T00Z_MSC_RDPS_WindDir_IsbL-0250_RLatLon0.09_PT072H.grib2 2026-05-01 03:04 457K
20260501T00Z_MSC_RDPS_WindDir_IsbL-0275_RLatLon0.09_PT072H.grib2 2026-05-01 03:04 480K
20260501T00Z_MSC_RDPS_WindDir_IsbL-0300_RLatLon0.09_PT072H.grib2 2026-05-01 03:04 477K
20260501T00Z_MSC_RDPS_WindDir_IsbL-0350_RLatLon0.09_PT072H.grib2 2026-05-01 03:04 498K
20260501T00Z_MSC_RDPS_WindDir_IsbL-0400_RLatLon0.09_PT072H.grib2 2026-05-01 03:04 522K
20260501T00Z_MSC_RDPS_WindDir_IsbL-0450_RLatLon0.09_PT072H.grib2 2026-05-01 03:04 531K
20260501T00Z_MSC_RDPS_WindDir_IsbL-0500_RLatLon0.09_PT072H.grib2 2026-05-01 03:04 536K
20260501T00Z_MSC_RDPS_WindDir_IsbL-0550_RLatLon0.09_PT072H.grib2 2026-05-01 03:04 546K
20260501T00Z_MSC_RDPS_WindDir_IsbL-0600_RLatLon0.09_PT072H.grib2 2026-05-01 03:04 567K
20260501T00Z_MSC_RDPS_WindDir_IsbL-0650_RLatLon0.09_PT072H.grib2 2026-05-01 03:04 601K
20260501T00Z_MSC_RDPS_WindDir_IsbL-0700_RLatLon0.09_PT072H.grib2 2026-05-01 03:04 645K
20260501T00Z_MSC_RDPS_WindDir_IsbL-0750_RLatLon0.09_PT072H.grib2 2026-05-01 03:04 688K
20260501T00Z_MSC_RDPS_WindDir_IsbL-0800_RLatLon0.09_PT072H.grib2 2026-05-01 03:04 755K
20260501T00Z_MSC_RDPS_WindDir_IsbL-0850_RLatLon0.09_PT072H.grib2 2026-05-01 03:04 847K
20260501T00Z_MSC_RDPS_WindDir_IsbL-0875_RLatLon0.09_PT072H.grib2 2026-05-01 03:04 879K
20260501T00Z_MSC_RDPS_WindDir_IsbL-0900_RLatLon0.09_PT072H.grib2 2026-05-01 03:04 898K
20260501T00Z_MSC_RDPS_WindDir_IsbL-0925_RLatLon0.09_PT072H.grib2 2026-05-01 03:04 906K
20260501T00Z_MSC_RDPS_WindDir_IsbL-0950_RLatLon0.09_PT072H.grib2 2026-05-01 03:04 905K
20260501T00Z_MSC_RDPS_WindDir_IsbL-0970_RLatLon0.09_PT072H.grib2 2026-05-01 03:04 912K
20260501T00Z_MSC_RDPS_WindDir_IsbL-0985_RLatLon0.09_PT072H.grib2 2026-05-01 03:04 922K
20260501T00Z_MSC_RDPS_WindDir_IsbL-1000_RLatLon0.09_PT072H.grib2 2026-05-01 03:04 936K
20260501T00Z_MSC_RDPS_WindDir_IsbL-1015_RLatLon0.09_PT072H.grib2 2026-05-01 03:04 949K
20260501T00Z_MSC_RDPS_WindGust-Max_AGL-10m_RLatLon0.09_PT072H.grib2 2026-05-01 03:04 1.0M
20260501T00Z_MSC_RDPS_WindGust-Min_AGL-10m_RLatLon0.09_PT072H.grib2 2026-05-01 03:04 1.0M
20260501T00Z_MSC_RDPS_WindGust_AGL-10m_RLatLon0.09_PT072H.grib2 2026-05-01 03:04 1.0M
20260501T00Z_MSC_RDPS_WindSpeed_AGL-10m_RLatLon0.09_PT072H.grib2 2026-05-01 03:04 834K
20260501T00Z_MSC_RDPS_WindSpeed_AGL-120m_RLatLon0.09_PT072H.grib2 2026-05-01 03:04 530K
20260501T00Z_MSC_RDPS_WindSpeed_AGL-40m_RLatLon0.09_PT072H.grib2 2026-05-01 03:04 536K
20260501T00Z_MSC_RDPS_WindSpeed_AGL-80m_RLatLon0.09_PT072H.grib2 2026-05-01 03:04 531K
20260501T00Z_MSC_RDPS_WindSpeed_IsbL-0001_RLatLon0.09_PT072H.grib2 2026-05-01 03:04 332K
20260501T00Z_MSC_RDPS_WindSpeed_IsbL-0005_RLatLon0.09_PT072H.grib2 2026-05-01 03:04 345K
20260501T00Z_MSC_RDPS_WindSpeed_IsbL-0010_RLatLon0.09_PT072H.grib2 2026-05-01 03:04 400K
20260501T00Z_MSC_RDPS_WindSpeed_IsbL-0020_RLatLon0.09_PT072H.grib2 2026-05-01 03:04 422K
20260501T00Z_MSC_RDPS_WindSpeed_IsbL-0030_RLatLon0.09_PT072H.grib2 2026-05-01 03:04 324K
20260501T00Z_MSC_RDPS_WindSpeed_IsbL-0050_RLatLon0.09_PT072H.grib2 2026-05-01 03:04 353K
20260501T00Z_MSC_RDPS_WindSpeed_IsbL-0100_RLatLon0.09_PT072H.grib2 2026-05-01 03:04 480K
20260501T00Z_MSC_RDPS_WindSpeed_IsbL-0150_RLatLon0.09_PT072H.grib2 2026-05-01 03:04 385K
20260501T00Z_MSC_RDPS_WindSpeed_IsbL-0175_RLatLon0.09_PT072H.grib2 2026-05-01 03:04 430K
20260501T00Z_MSC_RDPS_WindSpeed_IsbL-0200_RLatLon0.09_PT072H.grib2 2026-05-01 03:04 447K
20260501T00Z_MSC_RDPS_WindSpeed_IsbL-0225_RLatLon0.09_PT072H.grib2 2026-05-01 03:04 454K
20260501T00Z_MSC_RDPS_WindSpeed_IsbL-0250_RLatLon0.09_PT072H.grib2 2026-05-01 03:04 455K
20260501T00Z_MSC_RDPS_WindSpeed_IsbL-0275_RLatLon0.09_PT072H.grib2 2026-05-01 03:04 472K
20260501T00Z_MSC_RDPS_WindSpeed_IsbL-0300_RLatLon0.09_PT072H.grib2 2026-05-01 03:04 467K
20260501T00Z_MSC_RDPS_WindSpeed_IsbL-0350_RLatLon0.09_PT072H.grib2 2026-05-01 03:04 478K
20260501T00Z_MSC_RDPS_WindSpeed_IsbL-0400_RLatLon0.09_PT072H.grib2 2026-05-01 03:04 464K
20260501T00Z_MSC_RDPS_WindSpeed_IsbL-0450_RLatLon0.09_PT072H.grib2 2026-05-01 03:04 466K
20260501T00Z_MSC_RDPS_WindSpeed_IsbL-0500_RLatLon0.09_PT072H.grib2 2026-05-01 03:04 467K
20260501T00Z_MSC_RDPS_WindSpeed_IsbL-0550_RLatLon0.09_PT072H.grib2 2026-05-01 03:04 584K
20260501T00Z_MSC_RDPS_WindSpeed_IsbL-0600_RLatLon0.09_PT072H.grib2 2026-05-01 03:04 589K
20260501T00Z_MSC_RDPS_WindSpeed_IsbL-0650_RLatLon0.09_PT072H.grib2 2026-05-01 03:04 609K
20260501T00Z_MSC_RDPS_WindSpeed_IsbL-0700_RLatLon0.09_PT072H.grib2 2026-05-01 03:04 676K
20260501T00Z_MSC_RDPS_WindSpeed_IsbL-0750_RLatLon0.09_PT072H.grib2 2026-05-01 03:04 706K
20260501T00Z_MSC_RDPS_WindSpeed_IsbL-0800_RLatLon0.09_PT072H.grib2 2026-05-01 03:04 753K
20260501T00Z_MSC_RDPS_WindSpeed_IsbL-0850_RLatLon0.09_PT072H.grib2 2026-05-01 03:04 814K
20260501T00Z_MSC_RDPS_WindSpeed_IsbL-0875_RLatLon0.09_PT072H.grib2 2026-05-01 03:04 838K
20260501T00Z_MSC_RDPS_WindSpeed_IsbL-0900_RLatLon0.09_PT072H.grib2 2026-05-01 03:04 851K
20260501T00Z_MSC_RDPS_WindSpeed_IsbL-0925_RLatLon0.09_PT072H.grib2 2026-05-01 03:04 863K
20260501T00Z_MSC_RDPS_WindSpeed_IsbL-0950_RLatLon0.09_PT072H.grib2 2026-05-01 03:04 863K
20260501T00Z_MSC_RDPS_WindSpeed_IsbL-0970_RLatLon0.09_PT072H.grib2 2026-05-01 03:04 857K
20260501T00Z_MSC_RDPS_WindSpeed_IsbL-0985_RLatLon0.09_PT072H.grib2 2026-05-01 03:04 854K
20260501T00Z_MSC_RDPS_WindSpeed_IsbL-1000_RLatLon0.09_PT072H.grib2 2026-05-01 03:04 846K
20260501T00Z_MSC_RDPS_WindSpeed_IsbL-1015_RLatLon0.09_PT072H.grib2 2026-05-01 03:04 835K
20260501T00Z_MSC_RDPS_WindU_AGL-10m_RLatLon0.09_PT072H.grib2 2026-05-01 03:04 430K
20260501T00Z_MSC_RDPS_WindU_AGL-120m_RLatLon0.09_PT072H.grib2 2026-05-01 03:04 529K
20260501T00Z_MSC_RDPS_WindU_AGL-40m_RLatLon0.09_PT072H.grib2 2026-05-01 03:04 533K
20260501T00Z_MSC_RDPS_WindU_AGL-80m_RLatLon0.09_PT072H.grib2 2026-05-01 03:04 531K
20260501T00Z_MSC_RDPS_WindU_IsbL-0001_RLatLon0.09_PT072H.grib2 2026-05-01 03:04 293K
20260501T00Z_MSC_RDPS_WindU_IsbL-0005_RLatLon0.09_PT072H.grib2 2026-05-01 03:04 283K
20260501T00Z_MSC_RDPS_WindU_IsbL-0010_RLatLon0.09_PT072H.grib2 2026-05-01 03:04 298K
20260501T00Z_MSC_RDPS_WindU_IsbL-0020_RLatLon0.09_PT072H.grib2 2026-05-01 03:04 316K
20260501T00Z_MSC_RDPS_WindU_IsbL-0030_RLatLon0.09_PT072H.grib2 2026-05-01 03:04 356K
20260501T00Z_MSC_RDPS_WindU_IsbL-0050_RLatLon0.09_PT072H.grib2 2026-05-01 03:04 382K
20260501T00Z_MSC_RDPS_WindU_IsbL-0100_RLatLon0.09_PT072H.grib2 2026-05-01 03:04 435K
20260501T00Z_MSC_RDPS_WindU_IsbL-0150_RLatLon0.09_PT072H.grib2 2026-05-01 03:04 401K
20260501T00Z_MSC_RDPS_WindU_IsbL-0175_RLatLon0.09_PT072H.grib2 2026-05-01 03:04 423K
20260501T00Z_MSC_RDPS_WindU_IsbL-0200_RLatLon0.09_PT072H.grib2 2026-05-01 03:04 341K
20260501T00Z_MSC_RDPS_WindU_IsbL-0225_RLatLon0.09_PT072H.grib2 2026-05-01 03:04 346K
20260501T00Z_MSC_RDPS_WindU_IsbL-0250_RLatLon0.09_PT072H.grib2 2026-05-01 03:04 345K
20260501T00Z_MSC_RDPS_WindU_IsbL-0275_RLatLon0.09_PT072H.grib2 2026-05-01 03:04 359K
20260501T00Z_MSC_RDPS_WindU_IsbL-0300_RLatLon0.09_PT072H.grib2 2026-05-01 03:04 455K
20260501T00Z_MSC_RDPS_WindU_IsbL-0350_RLatLon0.09_PT072H.grib2 2026-05-01 03:04 465K
20260501T00Z_MSC_RDPS_WindU_IsbL-0400_RLatLon0.09_PT072H.grib2 2026-05-01 03:04 469K
20260501T00Z_MSC_RDPS_WindU_IsbL-0450_RLatLon0.09_PT072H.grib2 2026-05-01 03:04 470K
20260501T00Z_MSC_RDPS_WindU_IsbL-0500_RLatLon0.09_PT072H.grib2 2026-05-01 03:04 472K
20260501T00Z_MSC_RDPS_WindU_IsbL-0550_RLatLon0.09_PT072H.grib2 2026-05-01 03:04 455K
20260501T00Z_MSC_RDPS_WindU_IsbL-0600_RLatLon0.09_PT072H.grib2 2026-05-01 03:04 462K
20260501T00Z_MSC_RDPS_WindU_IsbL-0650_RLatLon0.09_PT072H.grib2 2026-05-01 03:04 480K
20260501T00Z_MSC_RDPS_WindU_IsbL-0700_RLatLon0.09_PT072H.grib2 2026-05-01 03:04 501K
20260501T00Z_MSC_RDPS_WindU_IsbL-0750_RLatLon0.09_PT072H.grib2 2026-05-01 03:04 527K
20260501T00Z_MSC_RDPS_WindU_IsbL-0800_RLatLon0.09_PT072H.grib2 2026-05-01 03:04 567K
20260501T00Z_MSC_RDPS_WindU_IsbL-0850_RLatLon0.09_PT072H.grib2 2026-05-01 03:04 620K
20260501T00Z_MSC_RDPS_WindU_IsbL-0875_RLatLon0.09_PT072H.grib2 2026-05-01 03:04 648K
20260501T00Z_MSC_RDPS_WindU_IsbL-0900_RLatLon0.09_PT072H.grib2 2026-05-01 03:04 651K
20260501T00Z_MSC_RDPS_WindU_IsbL-0925_RLatLon0.09_PT072H.grib2 2026-05-01 03:04 658K
20260501T00Z_MSC_RDPS_WindU_IsbL-0950_RLatLon0.09_PT072H.grib2 2026-05-01 03:04 655K
20260501T00Z_MSC_RDPS_WindU_IsbL-0970_RLatLon0.09_PT072H.grib2 2026-05-01 03:04 651K
20260501T00Z_MSC_RDPS_WindU_IsbL-0985_RLatLon0.09_PT072H.grib2 2026-05-01 03:04 648K
20260501T00Z_MSC_RDPS_WindU_IsbL-1000_RLatLon0.09_PT072H.grib2 2026-05-01 03:04 782K
20260501T00Z_MSC_RDPS_WindU_IsbL-1015_RLatLon0.09_PT072H.grib2 2026-05-01 03:04 775K
20260501T00Z_MSC_RDPS_WindV_AGL-10m_RLatLon0.09_PT072H.grib2 2026-05-01 03:04 429K
20260501T00Z_MSC_RDPS_WindV_AGL-120m_RLatLon0.09_PT072H.grib2 2026-05-01 03:04 528K
20260501T00Z_MSC_RDPS_WindV_AGL-40m_RLatLon0.09_PT072H.grib2 2026-05-01 03:04 532K
20260501T00Z_MSC_RDPS_WindV_AGL-80m_RLatLon0.09_PT072H.grib2 2026-05-01 03:04 530K
20260501T00Z_MSC_RDPS_WindV_IsbL-0001_RLatLon0.09_PT072H.grib2 2026-05-01 03:04 247K
20260501T00Z_MSC_RDPS_WindV_IsbL-0005_RLatLon0.09_PT072H.grib2 2026-05-01 03:04 286K
20260501T00Z_MSC_RDPS_WindV_IsbL-0010_RLatLon0.09_PT072H.grib2 2026-05-01 03:04 390K
20260501T00Z_MSC_RDPS_WindV_IsbL-0020_RLatLon0.09_PT072H.grib2 2026-05-01 03:04 319K
20260501T00Z_MSC_RDPS_WindV_IsbL-0030_RLatLon0.09_PT072H.grib2 2026-05-01 03:04 319K
20260501T00Z_MSC_RDPS_WindV_IsbL-0050_RLatLon0.09_PT072H.grib2 2026-05-01 03:04 345K
20260501T00Z_MSC_RDPS_WindV_IsbL-0100_RLatLon0.09_PT072H.grib2 2026-05-01 03:04 336K
20260501T00Z_MSC_RDPS_WindV_IsbL-0150_RLatLon0.09_PT072H.grib2 2026-05-01 03:04 400K
20260501T00Z_MSC_RDPS_WindV_IsbL-0175_RLatLon0.09_PT072H.grib2 2026-05-01 03:04 327K
20260501T00Z_MSC_RDPS_WindV_IsbL-0200_RLatLon0.09_PT072H.grib2 2026-05-01 03:04 340K
20260501T00Z_MSC_RDPS_WindV_IsbL-0225_RLatLon0.09_PT072H.grib2 2026-05-01 03:04 371K
20260501T00Z_MSC_RDPS_WindV_IsbL-0250_RLatLon0.09_PT072H.grib2 2026-05-01 03:04 370K
20260501T00Z_MSC_RDPS_WindV_IsbL-0275_RLatLon0.09_PT072H.grib2 2026-05-01 03:04 381K
20260501T00Z_MSC_RDPS_WindV_IsbL-0300_RLatLon0.09_PT072H.grib2 2026-05-01 03:04 377K
20260501T00Z_MSC_RDPS_WindV_IsbL-0350_RLatLon0.09_PT072H.grib2 2026-05-01 03:04 360K
20260501T00Z_MSC_RDPS_WindV_IsbL-0400_RLatLon0.09_PT072H.grib2 2026-05-01 03:04 364K
20260501T00Z_MSC_RDPS_WindV_IsbL-0450_RLatLon0.09_PT072H.grib2 2026-05-01 03:04 366K
20260501T00Z_MSC_RDPS_WindV_IsbL-0500_RLatLon0.09_PT072H.grib2 2026-05-01 03:04 470K
20260501T00Z_MSC_RDPS_WindV_IsbL-0550_RLatLon0.09_PT072H.grib2 2026-05-01 03:04 472K
20260501T00Z_MSC_RDPS_WindV_IsbL-0600_RLatLon0.09_PT072H.grib2 2026-05-01 03:04 477K
20260501T00Z_MSC_RDPS_WindV_IsbL-0650_RLatLon0.09_PT072H.grib2 2026-05-01 03:04 494K
20260501T00Z_MSC_RDPS_WindV_IsbL-0700_RLatLon0.09_PT072H.grib2 2026-05-01 03:04 514K
20260501T00Z_MSC_RDPS_WindV_IsbL-0750_RLatLon0.09_PT072H.grib2 2026-05-01 03:04 538K
20260501T00Z_MSC_RDPS_WindV_IsbL-0800_RLatLon0.09_PT072H.grib2 2026-05-01 03:04 576K
20260501T00Z_MSC_RDPS_WindV_IsbL-0850_RLatLon0.09_PT072H.grib2 2026-05-01 03:04 626K
20260501T00Z_MSC_RDPS_WindV_IsbL-0875_RLatLon0.09_PT072H.grib2 2026-05-01 03:04 646K
20260501T00Z_MSC_RDPS_WindV_IsbL-0900_RLatLon0.09_PT072H.grib2 2026-05-01 03:04 649K
20260501T00Z_MSC_RDPS_WindV_IsbL-0925_RLatLon0.09_PT072H.grib2 2026-05-01 03:04 658K
20260501T00Z_MSC_RDPS_WindV_IsbL-0950_RLatLon0.09_PT072H.grib2 2026-05-01 03:04 656K
20260501T00Z_MSC_RDPS_WindV_IsbL-0970_RLatLon0.09_PT072H.grib2 2026-05-01 03:04 653K
20260501T00Z_MSC_RDPS_WindV_IsbL-0985_RLatLon0.09_PT072H.grib2 2026-05-01 03:04 789K
20260501T00Z_MSC_RDPS_WindV_IsbL-1000_RLatLon0.09_PT072H.grib2 2026-05-01 03:04 782K
20260501T00Z_MSC_RDPS_WindV_IsbL-1015_RLatLon0.09_PT072H.grib2 2026-05-01 03:04 774K